Location: Berg
(47.2344°N, 9.5296°E)
Time: 14:45:46
(UTC+00:00)

Cosmos 44 - Pass Details

Date: 12 May 2021
Orbit: 571 x 791 km, 65.1° (Epoch: 13 June)

Event Time Altitude Azimuth Distance (km) Brightness Sun altitude
Rises 20:38:32 0° 325° (NW) 3,297 8.7 -15.2°
Reaches altitude 10° 20:41:08 10° 332° (NNW) 2,362 7.3 -15.5°
Maximum altitude 20:46:17 41° 43° (NE) 1,115 4.4 -16.1°
Enters shadow 20:49:40 19° 104° (ESE) 1,750 4.9 -16.4°
